カタログに戻る

ONEWEB-0622

運用中通信PO
NORAD 55163·PAYLOAD·🇬🇧 United Kingdom

打ち上げ Jan 10, 2023 から Cape Canaveral Space Force Station

Loading…

次のパス (今後24時間)

TLE

最新Source: CelesTrak SupGP

元期: Sep 14, 2026, 21:41 UTC

1 55163C 23004Z   26257.90398565 -.00001021  00000+0 -28853-2 0  2576
2 55163  87.8973   3.2350 0001703 130.9137 269.4931 13.11421166    13

AllMySatでONEWEB-0622をリアルタイム追跡

Download on the App Store